HVDC transfer

From www.emi.ea.govt.nz provided by the Electricity Authority (New Zealand)
Run at: 20240505084618

Parameters
Date range,06 Jun 2020 - 06 Jun 2020
Time scale,Trading period
Show,Average flow (MW)

Period start,Period end,Trading period,Direction,Energy transfer (GWh),Peak flow (MW),Average flow (MW)
06/06/2020 00:00:00,06/06/2020 00:30:00,1,Northward at Haywards,0.106,212,212
06/06/2020 00:30:00,06/06/2020 01:00:00,2,Northward at Haywards,0.075,149,149
06/06/2020 01:00:00,06/06/2020 01:30:00,3,Northward at Haywards,0.071,142,142
06/06/2020 01:30:00,06/06/2020 02:00:00,4,Northward at Haywards,0.060,120,120
06/06/2020 02:00:00,06/06/2020 02:30:00,5,Northward at Haywards,0.054,107,107
06/06/2020 02:30:00,06/06/2020 03:00:00,6,Northward at Haywards,0.022,43,43
06/06/2020 03:00:00,06/06/2020 03:30:00,7,Northward at Haywards,0.024,48,48
06/06/2020 03:30:00,06/06/2020 04:00:00,8,Northward at Haywards,0.003,6,6
06/06/2020 04:00:00,06/06/2020 04:30:00,9,Southward at Benmore,-0.010,-21,-21
06/06/2020 04:30:00,06/06/2020 05:00:00,10,Southward at Benmore,-0.031,-62,-62
06/06/2020 05:00:00,06/06/2020 05:30:00,11,Southward at Benmore,-0.037,-75,-75
06/06/2020 05:30:00,06/06/2020 06:00:00,12,Northward at Haywards,0.005,9,9
06/06/2020 06:00:00,06/06/2020 06:30:00,13,Southward at Benmore,-0.003,-7,-7
06/06/2020 06:30:00,06/06/2020 07:00:00,14,Northward at Haywards,0.005,10,10
06/06/2020 07:00:00,06/06/2020 07:30:00,15,Northward at Haywards,0.039,77,77
06/06/2020 07:30:00,06/06/2020 08:00:00,16,Northward at Haywards,0.068,135,135
06/06/2020 08:00:00,06/06/2020 08:30:00,17,Northward at Haywards,0.101,201,201
06/06/2020 08:30:00,06/06/2020 09:00:00,18,Northward at Haywards,0.107,214,214
06/06/2020 09:00:00,06/06/2020 09:30:00,19,Northward at Haywards,0.105,209,209
06/06/2020 09:30:00,06/06/2020 10:00:00,20,Northward at Haywards,0.090,180,180
06/06/2020 10:00:00,06/06/2020 10:30:00,21,Northward at Haywards,0.079,158,158
06/06/2020 10:30:00,06/06/2020 11:00:00,22,Northward at Haywards,0.063,125,125
06/06/2020 11:00:00,06/06/2020 11:30:00,23,Northward at Haywards,0.093,185,185
06/06/2020 11:30:00,06/06/2020 12:00:00,24,Northward at Haywards,0.098,196,196
06/06/2020 12:00:00,06/06/2020 12:30:00,25,Northward at Haywards,0.067,133,133
06/06/2020 12:30:00,06/06/2020 13:00:00,26,Northward at Haywards,0.060,119,119
06/06/2020 13:00:00,06/06/2020 13:30:00,27,Northward at Haywards,0.056,111,111
06/06/2020 13:30:00,06/06/2020 14:00:00,28,Northward at Haywards,0.048,96,96
06/06/2020 14:00:00,06/06/2020 14:30:00,29,Northward at Haywards,0.053,105,105
06/06/2020 14:30:00,06/06/2020 15:00:00,30,Northward at Haywards,0.064,127,127
06/06/2020 15:00:00,06/06/2020 15:30:00,31,Northward at Haywards,0.078,155,155
06/06/2020 15:30:00,06/06/2020 16:00:00,32,Northward at Haywards,0.081,162,162
06/06/2020 16:00:00,06/06/2020 16:30:00,33,Northward at Haywards,0.102,203,203
06/06/2020 16:30:00,06/06/2020 17:00:00,34,Northward at Haywards,0.104,207,207
06/06/2020 17:00:00,06/06/2020 17:30:00,35,Northward at Haywards,0.112,224,224
06/06/2020 17:30:00,06/06/2020 18:00:00,36,Northward at Haywards,0.166,332,332
06/06/2020 18:00:00,06/06/2020 18:30:00,37,Northward at Haywards,0.147,294,294
06/06/2020 18:30:00,06/06/2020 19:00:00,38,Northward at Haywards,0.127,253,253
06/06/2020 19:00:00,06/06/2020 19:30:00,39,Northward at Haywards,0.125,249,249
06/06/2020 19:30:00,06/06/2020 20:00:00,40,Northward at Haywards,0.112,224,224
06/06/2020 20:00:00,06/06/2020 20:30:00,41,Northward at Haywards,0.071,141,141
06/06/2020 20:30:00,06/06/2020 21:00:00,42,Northward at Haywards,0.070,140,140
06/06/2020 21:00:00,06/06/2020 21:30:00,43,Northward at Haywards,0.087,173,173
06/06/2020 21:30:00,06/06/2020 22:00:00,44,Northward at Haywards,0.101,201,201
06/06/2020 22:00:00,06/06/2020 22:30:00,45,Northward at Haywards,0.095,190,190
06/06/2020 22:30:00,06/06/2020 23:00:00,46,Northward at Haywards,0.058,116,116
06/06/2020 23:00:00,06/06/2020 23:30:00,47,Northward at Haywards,0.051,102,102
06/06/2020 23:30:00,07/06/2020 00:00:00,48,Northward at Haywards,0.055,109,109
